Vertical_Velocity
-1 -1 -1 -0 0 0 -0 0 0 1 -0 1 1 2 1 1 0 -0 -1 -1 -1 -2 -2 -2 -2 -2 -2 -1 -1 -1 -1 -1 -1 -1 -1 -1 -1 -1 -1 -1 -0 -0 0 0 -0 -0 -1 -1 -1 -1 -2 -2 -2 -1 -1 -1 -1 -1 -1 -1 -1 -1 -1 -1 -1 -1 -1 -1 -0 0 0 0 -0 -1 -1 -0 -0 -1 -2 -2 -2 -2 -1 -1 -1 -2
-0 -0 -1 -1 -0 0 -0 -0 0 1 1 1 1 1 1 1 1 1 0 -1 -1 -2 -2 -2 -2 -2 -2 -2 -1 -1 -1 -1 -1 -1 -1 -1 -1 -1 -1 -0 0 0 0 0 -0 -0 -1 -1 -1 -1 -2 -2 -2 -1 -1 -1 -1 -1 -1 -1 -1 -1 -1 -1 -1 -1 -1 -1 -0 -0 -0 -0 -0 -1 -1 -0 -0 -1 -1 -1 -2 -2 -1 -1 -1 -1
-0 -0 -1 -1 -0 -0 -0 -1 -0 1 1 1 0 0 1 1 1 0 0 0 -0 -1 -2 -2 -3 -3 -3 -2 -2 -1 -0 -1 -1 -1 -1 -1 -1 -0 -0 0 0 0 0 0 -0 -1 -1 -1 -1 -2 -2 -1 -1 -1 -1 -1 -1 -1 -1 -1 -1 -1 -0 -0 -0 -0 -1 -1 -1 -2 -1 -0 -0 -1 -0 -0 -1 -1 -1 -1 -0 -0 -0 -1 -1 -1
-1 -1 -1 -1 -1 -0 -0 -0 -0 0 1 1 1 0 0 0 0 -0 -1 -0 -0 -1 -1 -2 -3 -3 -3 -2 -2 -1 -0 -0 -1 -1 -1 -0 -0 -0 0 1 1 1 0 -0 -1 -1 -1 -1 -2 -2 -2 -1 -1 -1 -1 -1 -1 -1 -1 -1 -1 -0 -0 -0 0 0 0 -0 -1 -1 -1 -1 -1 -1 -0 0 0 -0 -0 -1 -0 -0 -1 -1 -1 -0
-1 -1 -1 -2 -1 -1 -0 0 1 1 1 1 1 0 0 0 0 -0 -1 -1 -1 -1 -1 -1 -2 -3 -3 -3 -2 -1 -0 -0 -0 -0 -0 -0 -0 -0 0 1 1 1 0 -0 -1 -1 -1 -1 -2 -2 -2 -1 -1 -1 -1 -1 -1 -1 -0 -0 -0 -0 0 0 0 0 -0 -0 -1 -1 -1 -1 -1 -1 -1 -0 -0 -0 -1 -1 -1 -1 -1 -0 1 1
-1 -1 -1 -2 -2 -1 -1 -0 1 1 1 1 1 1 1 1 0 -0 -1 -1 -1 -1 -1 -1 -2 -2 -3 -3 -2 -1 -1 -0 0 0 0 -0 -0 -0 -0 0 1 1 0 -0 -0 -1 -1 -1 -1 -1 -1 -1 -1 -1 -1 -1 -1 -0 -0 0 0 0 0 0 0 0 -0 -0 -0 -0 -1 -1 -1 -1 -1 -1 -1 -1 -1 -1 -1 -1 0 1 1 2
-1 -1 -1 -1 -1 -1 -1 -0 0 1 1 0 0 1 2 1 1 -0 -1 -2 -2 -2 -1 -1 -1 -1 -2 -2 -2 -1 -1 -0 0 1 1 1 0 -0 0 1 1 1 1 0 0 -0 -0 -1 -1 -1 -1 -1 -1 -1 -1 -1 -0 -0 0 0 1 1 0 0 0 -0 -0 0 0 0 0 0 1 1 1 1 0 0 0 -0 -0 0 1 0 1 1
-0 -0 -0 -0 -1 -1 -1 -1 -0 0 0 -1 -1 -0 1 1 1 1 -0 -1 -2 -2 -2 -1 -0 0 -0 -0 -0 -0 -1 -0 0 1 2 1 -0 -1 -0 1 1 2 2 1 1 1 0 -0 -1 -1 -1 -1 -1 -1 -1 -1 -0 0 1 1 1 1 0 0 0 0 0 1 1 2 2 2 3 3 3 3 2 2 1 0 -0 -0 1 0 0 -0
-0 -0 -0 -0 -0 -1 -1 -1 -1 -0 -0 -1 -2 -3 -2 -1 -0 1 1 1 0 -1 -1 -1 -0 0 1 -0 -0 0 0 0 0 1 1 1 -0 -1 -2 -0 1 2 2 2 2 1 1 -0 -1 -1 -1 -1 -1 -1 -1 -0 0 0 1 1 1 0 0 0 0 1 1 2 2 2 3 3 3 2 2 1 0 -0 -1 -1 -2 -2 -1 -1 -1 -1
0 0 -0 -0 0 0 0 -1 -1 -1 -0 -1 -3 -4 -4 -4 -4 -2 -1 1 1 1 -0 -1 -1 -1 -1 -1 -1 -1 0 1 2 2 2 1 0 -1 -2 -1 -0 1 2 2 2 1 1 0 -1 -1 -1 -1 -1 -1 -0 0 1 1 1 1 1 0 0 0 1 1 1 1 1 0 -0 -0 -1 -1 -1 -2 -2 -2 -2 -2 -2 -2 -2 -2 -2 -2
0 0 0 -0 -0 -0 0 -0 -1 -1 -1 -1 -2 -3 -4 -4 -4 -5 -5 -3 -2 -0 0 -0 -1 -2 -3 -3 -2 -2 -1 0 3 4 5 4 2 0 -0 -0 0 2 3 3 2 1 1 1 0 -1 -1 -0 -0 -0 0 1 1 1 1 1 1 1 0 0 0 0 -0 -1 -1 -1 -2 -2 -2 -2 -2 -2 -2 -2 -1 -1 -1 -0 -0 -1 -1 -2
0 0 0 -0 -0 -1 -1 -0 -1 -1 -1 -0 -0 -0 -0 -2 -3 -4 -6 -6 -6 -4 -3 -1 -0 -1 -3 -5 -5 -4 -3 -2 0 2 5 5 4 2 1 1 2 3 4 4 3 2 1 2 1 0 -1 -0 0 1 1 1 1 1 1 1 1 0 0 -0 -0 -0 -1 -1 -1 -1 -1 -1 -1 -1 -1 -1 -0 -0 -0 -0 -0 0 0 -1 -1 -2
1 0 0 -0 -1 -1 -0 -0 -1 -1 -1 -1 -1 -1 -2 -3 -3 -3 -4 -4 -5 -5 -5 -3 -1 1 1 -2 -5 -7 -6 -4 -2 1 3 4 2 1 -0 0 1 2 4 4 4 2 1 1 1 1 -0 -0 0 1 1 1 1 1 1 1 0 0 0 -0 -1 -1 -2 -2 -1 -1 -1 -0 -0 -0 0 0 0 0 -0 -0 -0 -0 -1 -2 -2 -3
1 0 -0 -1 -1 -1 -0 -0 -1 -1 -2 -2 -2 -2 -3 -3 -3 -3 -3 -2 -2 -2 -2 -3 -2 -0 2 1 -2 -5 -7 -7 -4 -1 3 4 2 -1 -1 -1 -1 0 1 3 3 2 1 0 1 1 1 0 0 0 1 1 1 1 1 0 0 -0 -0 -1 -1 -1 -1 -1 -1 -1 -0 -0 -0 0 0 0 -0 -0 -1 -1 -1 -1 -2 -3 -3 -3
0 -0 -1 -1 -1 -1 -0 -0 -1 -2 -2 -2 -2 -2 -2 -2 -2 -3 -2 -2 -2 -2 -2 -2 -1 0 2 1 -1 -2 -4 -7 -7 -5 -0 4 3 0 -3 -2 -2 -1 0 1 2 2 2 0 -0 -0 0 1 0 0 0 0 0 0 0 -0 -0 -0 -0 -1 -1 -1 -1 -0 -0 -0 -0 0 0 0 0 -0 -1 -1 -1 -1 -1 -2 -2 -3 -2 -2
0 0 -0 -1 -1 -0 -0 -1 -1 -2 -2 -2 -2 -2 -2 -2 -2 -2 -3 -3 -3 -4 -4 -6 -6 -4 -1 1 -0 -2 -4 -6 -7 -7 -5 0 3 1 -2 -3 -2 -2 -0 0 0 1 2 1 0 -1 -0 -0 0 0 0 0 0 0 -0 -0 -0 -1 -1 -1 -1 -0 -0 -0 0 0 -0 0 0 0 -0 -1 -1 -1 -1 -1 -2 -2 -1 -1 -1 -1
0 0 -0 -1 -0 -0 -1 -1 -1 -1 -2 -2 -2 -2 -2 -2 -2 -2 -3 -3 -3 -3 -4 -6 -8 -10 -10 -5 -2 -2 -6 -7 -8 -8 -7 -3 0 1 -2 -3 -4 -3 -1 0 0 -0 0 0 -0 -0 -0 -0 0 0 0 -0 -0 -0 -0 -0 -1 -1 -1 -1 -1 -0 -0 0 0 0 -0 -0 -0 -0 -0 -1 -1 -1 -1 -2 -2 -1 0 1 0 0
0 0 -0 -0 -1 -1 -1 -1 -1 -2 -2 -1 -1 -1 -1 -1 -1 -2 -2 -2 -3 -3 -3 -2 -3 -4 -7 -8 -4 -1 -6 -7 -8 -8 -7 -4 -1 0 -1 -3 -4 -3 -1 0 1 1 0 0 -0 -1 -0 0 1 1 0 -0 -0 -0 -1 -1 -1 -1 -1 -0 -0 -0 0 0 1 1 1 0 -0 -0 -0 -1 -1 -1 -1 -1 -0 0 1 1 1 1
0 0 0 -1 -1 -1 -1 -1 -1 -2 -2 -2 -2 -1 -0 -0 -0 -0 -1 -1 -2 -2 -2 -2 -1 -1 -2 -3 -2 -1 -4 -5 -6 -8 -8 -6 -2 0 -1 -3 -3 -3 -1 -0 0 0 1 1 1 1 0 1 1 1 0 -0 -0 -0 -0 -0 -1 -1 -1 -0 -0 0 0 1 1 1 1 -0 -0 -0 -0 -0 -0 -1 -1 -0 -0 0 1 1 1 2
0 0 -0 -1 -1 -1 -2 -2 -2 -2 -2 -2 -2 -2 -2 -1 -0 -0 -1 -1 -1 -1 -1 -1 -1 -1 -1 -2 -1 -0 -1 -3 -4 -6 -8 -7 -4 -1 -1 -2 -4 -4 -2 -0 -0 -0 0 2 3 2 2 2 2 1 0 -0 -0 -0 -0 -0 -0 -0 -0 0 1 1 1 1 1 1 1 0 -0 -0 0 0 -0 -1 -0 0 1 1 1 2 2 2
0 -0 -1 -1 -1 -1 -2 -2 -2 -2 -2 -1 -2 -2 -2 -2 -2 -2 -2 -2 -1 -1 -1 -1 -0 0 0 -1 -0 -0 -1 -3 -4 -5 -7 -7 -5 -3 -1 -2 -4 -4 -3 -1 -0 0 -0 2 3 3 2 2 1 1 1 0 -0 -0 -0 -0 0 0 0 1 1 1 1 1 1 1 0 0 0 0 0 0 0 0 1 1 1 1 2 2 2 2
-1 -1 -1 -1 -1 -1 -2 -2 -2 -2 -2 -2 -2 -3 -3 -3 -3 -3 -3 -3 -3 -2 -2 -1 -0 -0 0 1 2 2 -0 -2 -3 -4 -6 -7 -6 -3 1 -2 -4 -6 -5 -2 -0 0 1 2 3 3 2 2 1 1 1 0 0 -0 -0 0 0 0 1 1 1 1 1 1 1 0 0 1 0 0 1 0 0 1 1 1 2 2 3 2 2 1
-1 -1 -1 -1 -1 -1 -1 -1 -2 -2 -2 -2 -3 -3 -3 -3 -3 -3 -3 -4 -4 -4 -3 -3 -2 -0 1 3 4 4 2 -0 -1 -2 -4 -7 -6 -3 2 0 -3 -6 -6 -4 -2 -1 1 2 3 3 2 2 1 1 1 1 1 1 1 1 1 1 1 1 1 1 1 1 1 0 0 1 1 1 1 1 1 1 1 2 3 3 2 1 -0 -1
-1 -1 -1 -2 -2 -2 -1 -1 -2 -2 -2 -3 -3 -3 -3 -2 -2 -3 -3 -4 -4 -4 -4 -3 -1 1 3 3 3 2 2 0 0 0 -1 -5 -6 -5 -0 -0 -2 -5 -6 -3 -2 -2 -1 2 3 3 2 1 1 0 1 1 1 1 1 1 1 1 1 1 1 1 1 0 0 -0 0 0 0 1 1 1 1 1 1 2 3 3 1 -0 -1 -1
-2 -2 -2 -2 -2 -2 -2 -2 -2 -2 -3 -4 -4 -4 -3 -2 -2 -1 -2 -2 -2 -2 -2 -1 -1 -1 -0 0 1 1 2 0 0 0 1 -2 -5 -6 -2 -1 -2 -4 -7 -4 -2 -1 -2 -1 1 3 2 2 2 1 1 1 1 1 2 2 1 1 1 1 0 0 0 0 0 0 0 0 0 0 0 0 0 0 1 2 3 2 0 -0 -1 -1
-2 -2 -2 -2 -2 -2 -2 -2 -2 -2 -2 -3 -4 -5 -3 -2 -1 0 1 0 -0 -1 -1 -3 -4 -4 -4 -3 -1 0 2 1 -1 -1 -0 -1 -4 -6 -3 -2 -2 -4 -8 -7 -4 -3 -4 -4 -2 -0 1 2 2 2 2 1 1 1 1 1 1 1 1 0 0 -0 -0 -0 0 0 0 0 0 0 -0 -0 -1 -0 2 3 2 1 0 -0 -1 -2
-2 -2 -2 -2 -2 -2 -2 -2 -2 -2 -1 -1 -2 -3 -4 -2 -1 -0 0 -1 -1 -2 -4 -6 -7 -7 -7 -6 -4 -1 2 1 -1 -2 -3 -3 -4 -5 -4 -2 -2 -4 -7 -8 -7 -4 -4 -5 -4 -3 -2 -0 1 2 2 2 2 1 2 1 1 1 0 0 -0 -0 -0 -0 0 0 0 -0 -0 -0 -1 -1 -1 0 3 3 2 1 0 0 -1 -2
-2 -2 -2 -2 -2 -2 -2 -2 -2 -2 -2 -1 -1 -1 -2 -1 -1 -1 -2 -2 -3 -4 -5 -6 -6 -7 -8 -7 -5 -2 1 2 2 0 -3 -4 -4 -5 -5 -3 -2 -2 -4 -7 -7 -5 -3 -3 -4 -3 -3 -2 -1 1 2 2 2 2 1 1 1 1 0 -0 -0 -0 -0 -0 -0 -0 -0 -0 -0 -1 -2 -2 -1 1 3 2 2 1 0 0 -1 -2
-2 -2 -2 -2 -2 -2 -2 -2 -2 -2 -2 -1 -1 -1 -1 -1 -1 -2 -2 -3 -3 -3 -4 -4 -4 -4 -5 -5 -5 -4 -1 2 3 2 -1 -2 -4 -6 -4 -4 -4 -4 -3 -7 -10 -10 -5 -3 -3 -3 -3 -2 -1 -0 1 1 1 1 0 0 0 0 -0 -1 -1 -1 -1 -1 -0 -0 -0 -1 -1 -2 -3 -2 -0 2 3 2 2 1 1 1 -0 -2
-2 -2 -2 -2 -2 -2 -2 -2 -2 -1 -1 -1 -1 -1 -1 -1 -2 -2 -2 -3 -3 -3 -3 -2 -2 -2 -2 -4 -6 -6 -6 -0 2 1 -1 -2 -4 -6 -4 -3 -4 -5 -4 -7 -12 -15 -13 -7 -3 -2 -3 -3 -2 -1 -1 -1 -1 -1 -2 -1 -1 -1 -1 -1 -1 -1 -1 -1 -1 -1 -1 -1 -2 -3 -4 -2 1 3 3 2 2 2 2 1 -0 -2
-2 -2 -2 -2 -2 -2 -2 -2 -1 -1 -1 -1 -1 -1 -1 -1 -2 -2 -2 -2 -2 -2 -2 -2 -1 -1 -1 -1 -3 -5 -8 -2 0 -0 -3 -2 -4 -5 -3 -2 -2 -3 -1 -2 -6 -11 -18 -17 -9 -1 -0 -3 -4 -4 -3 -3 -3 -3 -3 -3 -3 -2 -1 -1 -2 -2 -2 -1 -1 -1 -2 -2 -3 -4 -3 -1 1 2 1 1 2 3 2 1 -0 -1
-2 -2 -2 -2 -2 -2 -1 -1 -1 -1 -1 -1 -1 -1 -1 -1 -1 -1 -2 -2 -1 -1 -1 -1 -1 -1 -0 0 -0 -2 -5 -1 1 0 -2 -2 -4 -5 -2 0 -0 -1 1 1 1 -2 -8 -18 -17 -9 -1 -1 -3 -4 -4 -3 -3 -3 -3 -3 -3 -2 -1 -1 -2 -3 -3 -2 -2 -2 -2 -4 -4 -4 -2 -0 1 1 -0 0 2 3 3 1 0 -1
-2 -2 -2 -2 -2 -2 -2 -2 -2 -1 -1 -1 -1 -1 -1 -1 -1 -1 -1 -1 -1 -1 -0 0 0 0 -0 -0 -1 -2 -3 0 2 2 0 -1 -3 -4 -3 0 1 1 1 2 3 2 0 -9 -14 -13 -8 -3 -1 -1 -2 -3 -3 -2 -2 -3 -4 -3 -2 -2 -2 -3 -3 -3 -3 -3 -4 -4 -4 -3 -1 0 0 -0 -1 0 2 3 4 2 1 0
-2 -2 -2 -2 -2 -2 -2 -2 -2 -2 -1 -1 -1 -0 -0 -0 -0 -0 -0 -0 -1 -0 -0 0 1 1 0 -1 -3 -4 -4 -0 2 2 1 1 -1 -3 -4 -1 1 2 1 0 0 1 1 -2 -5 -8 -12 -10 -4 1 1 -1 -2 -1 -1 -2 -3 -4 -4 -3 -3 -3 -3 -3 -3 -4 -5 -4 -3 -2 -1 -1 -1 -1 -0 1 1 2 4 3 2 2
-2 -2 -2 -2 -2 -2 -2 -2 -1 -1 -1 -1 -0 -0 -0 -0 -0 -0 0 0 0 0 0 0 1 1 1 0 -2 -4 -5 -1 1 1 1 1 -0 -2 -3 -1 1 2 2 -1 -1 -1 -2 -3 -2 -1 -6 -12 -10 -4 3 3 1 0 0 -0 -1 -2 -3 -3 -4 -4 -4 -4 -4 -4 -4 -3 -1 -0 -1 -1 -1 -1 0 1 1 1 2 2 3 3
-2 -2 -2 -2 -2 -2 -2 -1 -1 -0 -0 -0 -0 -0 -0 -0 -0 -0 -0 -0 0 1 2 2 2 1 1 0 -0 -2 -3 -2 -0 1 1 1 1 0 -1 -1 1 3 3 0 -1 -1 -2 -4 -4 -1 0 -6 -10 -10 -5 0 2 2 0 -1 -2 -2 -2 -2 -2 -3 -4 -4 -4 -4 -3 -1 0 0 -1 -1 -1 -0 0 1 0 0 0 1 2 3
-2 -2 -2 -2 -2 -2 -1 -1 -0 -0 -0 -0 0 -0 -0 -1 -1 -1 -1 -0 0 1 2 3 3 3 2 1 -0 -1 -2 -1 0 1 2 1 2 1 1 -1 0 2 3 1 0 -0 -1 -3 -5 -5 -2 -1 -4 -7 -10 -7 -4 -2 -1 -2 -3 -4 -3 -2 -2 -2 -3 -4 -4 -3 -1 0 0 -0 -2 -1 -1 -1 -0 0 0 0 0 -0 0 1
-2 -2 -2 -2 -2 -1 -1 -0 -1 -1 -1 -1 -1 -1 -1 -2 -2 -1 -1 -0 -0 0 1 2 4 4 4 3 1 -1 -1 -0 1 2 2 2 2 2 2 1 1 2 2 2 1 1 0 -1 -4 -6 -7 -5 -2 -1 -3 -6 -7 -6 -4 -2 -1 -2 -3 -2 -2 -2 -3 -2 -2 -1 0 0 -0 -1 -2 -2 -2 -2 -3 -2 -1 -0 -0 -0 -0 -0
-2 -2 -2 -2 -1 -1 -1 -1 -1 -2 -2 -3 -3 -3 -3 -3 -2 -2 -1 -0 0 1 1 1 2 3 5 4 3 1 -0 -1 -0 1 2 2 2 2 3 2 1 1 2 2 3 3 3 2 0 -1 -4 -7 -7 -5 -2 -2 -4 -6 -7 -6 -4 -2 -1 -2 -2 -2 -2 -2 -1 -1 -1 -1 -1 -2 -2 -1 -1 -2 -3 -3 -3 -2 -2 -3 -3 -2
-2 -2 -2 -1 -1 -1 -1 -2 -2 -2 -3 -3 -4 -4 -4 -3 -2 -0 1 2 2 2 2 2 2 2 3 3 3 2 1 0 0 0 1 2 2 3 3 2 2 1 1 1 2 3 4 3 2 2 2 -2 -5 -7 -6 -3 -3 -4 -7 -8 -8 -7 -4 -4 -3 -2 -1 -0 0 -0 -1 -2 -2 -1 -1 -0 0 0 -1 -2 -3 -3 -2 -3 -4 -4
-2 -1 -1 -1 -1 -1 -2 -2 -3 -3 -4 -4 -4 -4 -4 -3 -2 -0 2 3 4 3 3 3 3 3 4 2 1 0 1 1 1 1 1 2 2 3 3 3 2 1 0 -0 1 3 4 3 2 1 0 -0 -2 -3 -4 -2 -2 -2 -4 -5 -6 -6 -5 -3 -2 -1 -1 -1 0 1 -0 -1 -2 -2 -1 -0 1 2 2 0 -1 -2 -2 -0 0 -1
-1 -1 -0 -1 -1 -1 -1 -2 -3 -3 -4 -4 -3 -3 -3 -2 -2 -2 -1 -0 0 0 -1 -1 -1 0 3 5 4 1 0 1 1 2 2 2 2 2 3 3 3 2 1 -0 -0 1 3 3 2 1 0 -1 -2 -4 -4 -2 -1 -0 -1 -3 -5 -6 -5 -2 1 2 -0 -1 -1 -0 0 -1 -2 -2 -1 -1 -0 0 1 1 0 -0 0 1 1 0
-1 -1 -1 -1 -1 -2 -2 -2 -2 -2 -2 -2 -2 -2 -2 -1 -1 -1 -2 -2 -2 -3 -3 -4 -4 -4 -2 2 4 5 3 1 1 1 1 2 2 2 3 3 3 3 2 -0 -2 -2 0 2 3 2 1 0 -1 -2 -4 -4 -3 -1 -0 -2 -3 -5 -8 -7 -4 -1 0 -0 -0 0 0 -1 -1 -1 -1 -1 -1 -1 -1 -0 0 1 2 1 0 -0
-1 -1 -1 -1 -2 -2 -2 -2 -2 -1 -1 -1 -1 -1 -0 -0 -0 -0 -1 -2 -2 -3 -3 -3 -2 -2 -2 -1 1 3 5 4 3 2 2 2 2 2 2 3 4 3 3 1 -2 -4 -4 -1 1 3 2 2 0 -1 -2 -3 -2 -2 -1 -1 -0 -0 -2 -4 -4 -3 -2 -1 -1 0 0 -0 -1 -1 -2 -1 -1 -1 -2 -2 -1 -0 0 0 0 -0
-1 -1 -1 -1 -1 -1 -1 -1 -1 -1 -1 -1 -1 -1 -0 0 0 -0 -1 -2 -2 -2 -3 -2 -2 -1 -2 -2 -2 -1 1 2 3 3 3 3 3 3 3 3 3 3 3 2 1 -1 -4 -4 -2 0 3 3 2 1 -0 -2 -2 -2 -1 1 1 1 -1 -1 -1 -1 -2 -2 -2 -1 -0 -0 -1 -2 -3 -3 -2 -1 -1 -1 -1 -1 -1 0 0 0
-1 -1 -1 -1 -1 -1 -1 -1 -1 -0 -0 -0 -0 -0 -0 0 -0 -1 -1 -2 -1 -1 -1 -1 -1 -2 -3 -4 -4 -4 -4 -3 -2 -1 0 2 3 3 3 3 2 2 2 2 2 2 0 -2 -3 -3 -1 1 2 3 3 1 -1 -2 -2 -0 1 0 -1 -1 -1 -0 -1 -2 -2 -2 -1 -1 -1 -1 -2 -3 -2 -1 1 1 1 -0 -1 -0 0 1
-0 -0 -0 -0 -0 -0 -0 -1 -0 -0 0 0 0 -0 -0 -0 -1 -1 -1 -1 -1 -0 0 0 0 -1 -1 -2 -4 -5 -6 -6 -6 -5 -4 -2 -1 0 1 2 3 3 3 2 2 2 2 1 -1 -2 -3 -2 -1 0 2 2 1 -1 -2 -1 -0 -0 -1 -2 -1 -1 -1 -1 -1 -2 -2 -2 -2 -2 -2 -2 -2 -1 0 1 2 1 1 0 0 0
-0 -0 -0 -0 -0 -0 -1 -1 -0 -0 0 0 0 -0 -1 -1 -1 -1 -1 -1 -1 -0 -0 -0 -0 -0 -0 -1 -1 -2 -3 -4 -5 -5 -6 -6 -5 -4 -2 -0 1 3 4 4 4 3 3 2 1 -1 -2 -2 -2 -2 -2 -1 -0 0 -0 -1 -0 -1 -1 -2 -1 -0 -0 -1 -1 -1 -1 -2 -2 -2 -3 -3 -3 -3 -1 0 1 2 1 1 0 0
-0 -0 -0 -1 -1 -1 -1 -1 -1 -1 -0 -0 -0 -0 -1 -2 -2 -1 -1 -1 -0 -1 -1 -1 -1 -1 -1 -1 -1 -1 -1 -2 -2 -3 -4 -5 -6 -6 -6 -4 -2 -0 2 4 5 5 5 4 3 1 -1 -3 -3 -4 -5 -2 0 2 1 0 -0 -1 -2 -2 -1 -0 0 -1 -1 -1 -0 0 -0 -1 -1 -3 -4 -4 -3 -1 0 1 2 1 1 0
-0 -0 -1 -1 -2 -2 -2 -2 -1 -1 -1 -1 -1 -1 -1 -1 -1 -1 -0 -0 -0 -1 -1 -1 -1 -2 -2 -1 -1 -1 -1 -2 -2 -3 -3 -4 -5 -6 -7 -8 -8 -8 -7 -3 -0 2 3 4 5 5 2 -1 -3 -3 -2 -1 -0 1 1 0 0 -0 -1 -2 -1 -0 0 -0 -1 -1 -0 -0 -0 -0 -0 -1 -3 -4 -4 -2 -0 1 2 2 2 1
0 -0 -1 -2 -2 -2 -2 -2 -2 -2 -2 -2 -2 -2 -1 -1 -0 0 -0 -0 -0 -1 -1 -1 -1 -1 -1 -1 -1 -0 -1 -1 -2 -2 -3 -3 -3 -4 -5 -7 -9 -12 -14 -13 -12 -10 -8 -5 -1 3 6 6 3 1 0 -1 -2 -2 -2 -1 -0 0 0 -1 -1 -0 1 0 -0 -1 -1 -0 -0 0 1 -0 -2 -4 -5 -4 -1 1 2 2 2 2
Height
1477 1476 1476 1475 1474 1474 1473 1472 1471 1470 1469 1468 1467 1466 1464 1463 1461 1460 1458 1457 1455 1454 1453 1451 1450 1449 1448 1447 1446 1445 1444 1444 1442 1441 1440 1439 1438 1437 1436 1435 1434 1433 1432 1431 1430 1429 1428 1427 1426 1425 1424 1423 1422 1421 1420 1419 1418 1417 1416 1415 1414 1412 1411 1410 1409 1409 1408 1407 1406 1405 1404 1404 1403 1402 1401 1400 1399 1398 1397 1395 1394 1394 1393 1392 1391 1390
1476 1475 1475 1474 1473 1473 1471 1470 1469 1469 1468 1467 1465 1464 1463 1462 1460 1459 1457 1455 1454 1453 1451 1450 1449 1448 1447 1446 1445 1444 1444 1442 1441 1440 1439 1438 1437 1436 1435 1434 1433 1432 1431 1430 1429 1428 1427 1426 1425 1424 1423 1422 1421 1420 1419 1418 1416 1415 1414 1413 1412 1411 1410 1409 1408 1407 1406 1405 1404 1404 1403 1402 1401 1400 1399 1398 1397 1396 1395 1394 1393 1392 1391 1390 1389 1389
1475 1474 1474 1473 1472 1471 1470 1469 1468 1467 1466 1465 1464 1463 1461 1460 1459 1457 1456 1454 1453 1452 1450 1449 1448 1447 1446 1445 1444 1444 1442 1441 1440 1439 1439 1437 1436 1435 1434 1433 1432 1431 1430 1429 1428 1427 1426 1425 1424 1423 1422 1421 1419 1418 1417 1416 1415 1414 1413 1412 1410 1409 1408 1407 1406 1405 1404 1404 1403 1402 1401 1400 1399 1398 1397 1396 1395 1394 1394 1392 1392 1391 1390 1389 1388 1387
1474 1473 1472 1472 1471 1470 1469 1468 1467 1466 1465 1464 1462 1461 1460 1459 1457 1456 1455 1453 1452 1451 1449 1448 1447 1446 1445 1444 1443 1443 1442 1440 1439 1439 1438 1437 1435 1434 1433 1432 1431 1430 1429 1428 1427 1426 1425 1424 1423 1422 1420 1419 1418 1417 1416 1415 1414 1412 1411 1410 1409 1408 1407 1406 1405 1404 1403 1402 1401 1400 1399 1399 1398 1397 1396 1395 1394 1393 1392 1391 1390 1389 1388 1387 1386 1385
1472 1472 1471 1470 1469 1469 1468 1467 1466 1465 1464 1463 1461 1460 1459 1458 1456 1455 1454 1452 1451 1450 1449 1447 1446 1445 1444 1443 1442 1442 1441 1440 1439 1438 1437 1436 1434 1433 1432 1431 1430 1429 1428 1427 1426 1425 1424 1423 1421 1420 1419 1418 1417 1415 1414 1413 1412 1411 1410 1409 1407 1406 1405 1404 1403 1402 1401 1401 1400 1399 1398 1397 1396 1395 1394 1393 1392 1391 1390 1389 1389 1388 1387 1386 1385 1384
1471 1470 1470 1469 1468 1467 1466 1465 1465 1464 1463 1462 1460 1459 1458 1457 1455 1454 1453 1451 1450 1449 1448 1447 1445 1444 1443 1442 1441 1441 1440 1439 1438 1437 1436 1435 1434 1432 1431 1430 1429 1428 1427 1426 1425 1424 1423 1421 1420 1419 1418 1416 1415 1414 1413 1412 1410 1409 1408 1407 1406 1405 1404 1403 1402 1401 1400 1399 1399 1398 1397 1396 1395 1394 1393 1392 1391 1390 1389 1388 1387 1386 1385 1384 1383 1382
1470 1469 1469 1468 1467 1466 1465 1464 1464 1463 1462 1460 1459 1458 1457 1456 1454 1453 1451 1450 1449 1448 1447 1446 1445 1444 1442 1441 1440 1440 1439 1438 1437 1436 1435 1434 1433 1431 1430 1429 1428 1427 1426 1425 1424 1423 1421 1420 1419 1418 1416 1415 1414 1413 1411 1410 1409 1408 1407 1405 1404 1404 1402 1401 1400 1399 1399 1398 1397 1396 1395 1394 1394 1393 1392 1391 1389 1388 1387 1386 1385 1384 1383 1382 1381 1380
1469 1468 1468 1467 1466 1465 1464 1463 1462 1461 1460 1459 1458 1457 1456 1455 1454 1453 1451 1449 1448 1447 1446 1446 1445 1444 1442 1441 1440 1439 1438 1437 1436 1435 1434 1433 1432 1430 1429 1428 1427 1426 1425 1424 1423 1422 1420 1419 1418 1416 1415 1414 1412 1411 1410 1409 1407 1406 1405 1404 1403 1402 1401 1400 1399 1399 1398 1397 1396 1395 1394 1393 1392 1391 1390 1389 1388 1387 1385 1384 1383 1382 1381 1380 1379 1378
1468 1467 1466 1466 1465 1464 1463 1462 1461 1460 1459 1458 1456 1455 1454 1453 1453 1452 1451 1449 1448 1446 1445 1444 1444 1443 1442 1441 1439 1438 1437 1436 1435 1434 1433 1432 1430 1429 1428 1427 1426 1425 1424 1423 1422 1420 1419 1418 1416 1415 1414 1412 1411 1409 1408 1407 1406 1405 1404 1403 1402 1401 1399 1399 1398 1397 1396 1395 1394 1394 1392 1391 1390 1389 1388 1387 1385 1384 1383 1382 1381 1380 1379 1378 1377 1376
1467 1466 1465 1465 1464 1464 1463 1461 1460 1459 1458 1456 1455 1453 1452 1451 1450 1450 1449 1449 1447 1446 1444 1443 1442 1441 1441 1440 1439 1438 1437 1435 1434 1434 1432 1430 1429 1428 1427 1426 1424 1424 1423 1422 1421 1419 1418 1416 1415 1414 1412 1411 1409 1408 1407 1405 1404 1403 1402 1401 1400 1399 1398 1397 1397 1396 1394 1394 1393 1391 1390 1389 1388 1387 1385 1384 1383 1382 1381 1380 1379 1378 1377 1376 1375 1374
1466 1465 1464 1464 1463 1462 1461 1460 1459 1458 1457 1455 1454 1452 1451 1449 1449 1448 1447 1447 1446 1445 1444 1443 1441 1440 1439 1438 1438 1437 1436 1435 1434 1433 1432 1430 1429 1427 1426 1425 1424 1422 1421 1420 1419 1418 1417 1415 1414 1412 1411 1409 1408 1406 1405 1404 1403 1402 1401 1400 1399 1398 1397 1396 1395 1394 1393 1391 1390 1389 1388 1387 1386 1384 1384 1382 1381 1380 1379 1378 1377 1376 1375 1374 1373 1372
1465 1464 1464 1463 1461 1461 1460 1459 1458 1457 1455 1454 1453 1452 1450 1449 1448 1447 1445 1444 1444 1443 1442 1442 1441 1440 1438 1437 1436 1435 1435 1434 1432 1431 1430 1429 1428 1426 1425 1424 1423 1422 1420 1419 1418 1417 1415 1414 1412 1411 1409 1408 1406 1405 1404 1403 1401 1400 1399 1398 1397 1396 1395 1394 1393 1392 1391 1389 1388 1387 1386 1385 1384 1383 1382 1380 1379 1379 1377 1376 1375 1374 1373 1372 1371 1370
1464 1463 1462 1461 1460 1459 1459 1458 1457 1455 1454 1453 1452 1451 1449 1448 1447 1446 1444 1444 1442 1441 1440 1440 1439 1439 1438 1436 1435 1434 1433 1432 1431 1430 1429 1428 1426 1424 1423 1423 1422 1420 1419 1418 1417 1415 1414 1413 1411 1409 1408 1407 1405 1404 1402 1401 1400 1399 1398 1397 1396 1395 1394 1392 1391 1390 1389 1387 1386 1385 1384 1383 1382 1381 1380 1379 1378 1377 1375 1374 1373 1372 1371 1370 1369 1368
1463 1462 1461 1460 1459 1458 1457 1456 1455 1454 1453 1452 1451 1450 1449 1447 1446 1445 1444 1443 1442 1441 1440 1439 1438 1438 1437 1435 1434 1432 1431 1430 1429 1429 1428 1427 1425 1423 1422 1421 1420 1419 1418 1416 1415 1414 1413 1411 1409 1408 1407 1405 1404 1403 1401 1400 1399 1398 1397 1395 1394 1393 1392 1390 1389 1388 1387 1385 1384 1383 1382 1381 1380 1379 1378 1377 1376 1374 1374 1372 1371 1370 1369 1368 1367 1366
1462 1461 1460 1459 1458 1457 1456 1455 1454 1453 1452 1451 1450 1449 1447 1446 1445 1444 1443 1441 1440 1439 1439 1438 1437 1437 1436 1435 1433 1430 1429 1429 1428 1427 1426 1425 1424 1423 1420 1419 1418 1418 1416 1415 1414 1412 1411 1410 1408 1407 1405 1404 1403 1401 1400 1399 1397 1396 1395 1394 1393 1391 1390 1389 1387 1386 1385 1384 1382 1381 1380 1379 1378 1377 1376 1375 1374 1373 1372 1370 1369 1368 1367 1366 1366 1365
1461 1460 1459 1458 1457 1456 1455 1454 1453 1452 1451 1450 1449 1448 1446 1445 1444 1443 1442 1440 1439 1438 1437 1435 1434 1433 1433 1434 1433 1430 1428 1427 1426 1425 1424 1423 1423 1421 1419 1418 1416 1416 1415 1414 1412 1411 1410 1409 1407 1406 1404 1403 1401 1400 1399 1398 1396 1395 1394 1392 1391 1389 1388 1387 1385 1384 1383 1382 1381 1379 1378 1377 1376 1375 1374 1373 1372 1371 1370 1369 1368 1367 1366 1365 1364 1363
1460 1459 1458 1457 1456 1455 1454 1453 1453 1452 1451 1449 1448 1447 1446 1444 1443 1442 1441 1440 1439 1437 1436 1434 1433 1431 1429 1429 1430 1429 1428 1426 1424 1423 1422 1422 1421 1420 1419 1417 1415 1414 1413 1412 1411 1410 1409 1407 1406 1404 1403 1402 1400 1399 1398 1396 1395 1394 1392 1391 1389 1388 1386 1385 1384 1382 1381 1380 1379 1378 1377 1375 1374 1373 1372 1371 1370 1369 1368 1367 1366 1365 1364 1363 1363 1362
1459 1458 1457 1456 1455 1454 1453 1453 1452 1451 1450 1449 1448 1446 1445 1444 1443 1442 1441 1439 1438 1437 1435 1434 1433 1431 1429 1427 1427 1427 1426 1425 1423 1421 1420 1419 1419 1419 1417 1416 1414 1413 1412 1411 1410 1409 1407 1406 1405 1403 1402 1401 1399 1398 1396 1395 1394 1392 1391 1389 1388 1386 1385 1383 1382 1381 1379 1378 1377 1376 1375 1374 1373 1371 1370 1369 1368 1367 1366 1365 1364 1364 1363 1362 1361 1360
1458 1457 1456 1455 1454 1454 1453 1452 1451 1450 1449 1448 1447 1446 1445 1444 1443 1442 1440 1439 1438 1436 1435 1433 1432 1431 1429 1428 1427 1426 1425 1424 1422 1420 1418 1417 1417 1416 1415 1414 1413 1412 1411 1410 1409 1407 1406 1405 1404 1403 1401 1400 1398 1397 1395 1394 1392 1391 1389 1388 1386 1384 1383 1382 1380 1379 1378 1377 1375 1374 1373 1372 1371 1370 1369 1368 1367 1366 1365 1364 1363 1362 1361 1360 1359 1359
1457 1456 1455 1454 1454 1453 1452 1451 1450 1449 1448 1447 1446 1445 1444 1443 1442 1441 1440 1439 1437 1436 1435 1433 1432 1430 1429 1427 1426 1425 1424 1422 1420 1418 1416 1415 1414 1414 1413 1412 1411 1410 1409 1408 1407 1406 1405 1404 1403 1401 1400 1399 1397 1396 1394 1392 1391 1389 1388 1386 1384 1383 1381 1380 1379 1377 1376 1375 1374 1373 1372 1370 1369 1368 1367 1366 1365 1364 1363 1362 1362 1361 1360 1359 1358 1357
1456 1455 1455 1454 1453 1452 1451 1450 1449 1448 1447 1446 1445 1444 1443 1442 1441 1440 1439 1438 1437 1435 1434 1433 1431 1430 1429 1427 1426 1425 1423 1421 1419 1417 1414 1413 1412 1412 1411 1410 1409 1408 1407 1406 1405 1405 1404 1403 1401 1400 1399 1397 1396 1394 1393 1391 1389 1388 1386 1384 1383 1381 1380 1379 1377 1376 1375 1374 1372 1371 1370 1369 1368 1366 1365 1364 1364 1363 1362 1361 1360 1359 1358 1357 1356 1355
1456 1455 1454 1454 1453 1452 1451 1450 1449 1448 1447 1446 1444 1443 1442 1441 1440 1439 1438 1437 1436 1434 1433 1432 1431 1430 1429 1428 1427 1425 1423 1421 1419 1416 1414 1411 1409 1409 1409 1408 1407 1406 1405 1404 1403 1403 1402 1401 1400 1398 1397 1396 1394 1393 1391 1389 1388 1386 1385 1383 1382 1380 1379 1377 1376 1374 1373 1372 1371 1369 1368 1367 1366 1365 1364 1363 1362 1361 1360 1359 1359 1358 1357 1355 1354 1353
1455 1454 1454 1453 1452 1451 1450 1449 1448 1447 1446 1445 1444 1443 1442 1440 1439 1438 1437 1436 1435 1434 1433 1432 1431 1430 1429 1428 1427 1425 1422 1420 1418 1415 1413 1410 1408 1407 1407 1406 1405 1404 1403 1403 1402 1401 1400 1399 1398 1397 1395 1394 1393 1391 1390 1388 1387 1385 1384 1382 1380 1379 1377 1376 1374 1373 1372 1370 1369 1368 1367 1365 1364 1363 1362 1361 1360 1359 1359 1358 1357 1356 1355 1354 1352 1351
1455 1454 1453 1452 1451 1450 1449 1449 1447 1446 1445 1444 1443 1442 1441 1440 1439 1438 1436 1435 1434 1433 1432 1431 1430 1429 1428 1427 1425 1424 1422 1419 1417 1414 1412 1410 1408 1406 1406 1404 1403 1402 1401 1401 1400 1399 1398 1397 1396 1395 1394 1392 1391 1389 1388 1387 1385 1384 1382 1380 1379 1377 1376 1374 1373 1372 1370 1369 1367 1366 1365 1364 1362 1361 1360 1359 1359 1358 1357 1357 1355 1354 1353 1352 1350 1349
1454 1453 1453 1452 1451 1450 1449 1448 1447 1445 1444 1443 1442 1440 1440 1439 1438 1437 1435 1434 1433 1432 1431 1430 1429 1427 1426 1424 1423 1422 1420 1418 1416 1414 1412 1409 1407 1405 1405 1404 1402 1400 1399 1399 1398 1397 1396 1395 1395 1394 1392 1390 1389 1388 1387 1385 1384 1382 1381 1379 1378 1376 1374 1373 1371 1370 1369 1367 1365 1364 1363 1362 1360 1359 1359 1358 1357 1357 1356 1355 1354 1353 1351 1350 1348 1347
1454 1453 1452 1451 1450 1449 1449 1448 1446 1445 1444 1443 1441 1440 1439 1438 1438 1437 1435 1434 1433 1431 1430 1429 1427 1425 1424 1423 1421 1420 1419 1417 1415 1414 1412 1409 1406 1404 1404 1403 1401 1399 1397 1396 1395 1395 1394 1393 1392 1392 1391 1389 1388 1386 1385 1384 1382 1381 1379 1378 1376 1374 1373 1371 1370 1368 1367 1365 1364 1362 1361 1360 1359 1358 1357 1356 1356 1355 1354 1354 1352 1351 1349 1348 1346 1344
1453 1453 1452 1451 1450 1449 1448 1447 1446 1445 1444 1443 1441 1440 1438 1438 1437 1436 1435 1434 1432 1430 1429 1427 1424 1423 1421 1420 1419 1419 1418 1416 1414 1412 1411 1409 1406 1404 1402 1401 1400 1397 1394 1393 1392 1392 1391 1390 1389 1389 1389 1388 1387 1385 1384 1382 1381 1379 1378 1376 1374 1373 1371 1370 1368 1367 1365 1364 1362 1361 1359 1358 1357 1356 1355 1355 1354 1354 1353 1352 1351 1349 1348 1346 1344 1343
1453 1452 1451 1450 1449 1449 1448 1446 1445 1444 1443 1442 1441 1440 1438 1437 1436 1435 1434 1433 1431 1429 1428 1426 1424 1422 1419 1418 1418 1417 1417 1415 1414 1412 1410 1409 1406 1403 1401 1400 1399 1396 1393 1390 1389 1388 1388 1387 1387 1386 1386 1386 1385 1384 1383 1381 1379 1378 1376 1374 1373 1371 1370 1368 1367 1365 1363 1362 1360 1359 1358 1357 1355 1355 1354 1353 1353 1352 1352 1350 1349 1348 1346 1344 1343 1341
1452 1452 1451 1450 1449 1448 1447 1446 1445 1444 1443 1442 1440 1439 1438 1437 1436 1434 1433 1432 1430 1429 1427 1426 1424 1422 1419 1418 1416 1416 1416 1415 1414 1411 1409 1407 1405 1402 1401 1399 1397 1395 1392 1388 1385 1384 1384 1385 1384 1384 1384 1383 1383 1382 1381 1379 1378 1376 1374 1373 1371 1370 1368 1367 1365 1363 1362 1360 1359 1358 1356 1355 1354 1353 1353 1352 1351 1351 1350 1349 1348 1346 1344 1343 1341 1340
1451 1451 1450 1449 1448 1447 1446 1445 1444 1443 1442 1441 1440 1439 1437 1436 1435 1434 1432 1431 1430 1428 1427 1425 1424 1422 1419 1417 1414 1414 1414 1414 1414 1411 1409 1406 1403 1401 1399 1398 1396 1395 1393 1389 1384 1380 1379 1380 1382 1382 1381 1380 1380 1379 1379 1377 1375 1374 1372 1371 1369 1368 1367 1365 1363 1362 1360 1359 1357 1356 1354 1354 1353 1352 1351 1350 1350 1349 1349 1348 1346 1345 1343 1342 1340 1339
1451 1450 1449 1448 1447 1446 1445 1444 1444 1443 1442 1440 1439 1438 1437 1435 1434 1433 1432 1431 1429 1428 1426 1425 1423 1422 1420 1418 1415 1413 1412 1413 1412 1411 1408 1406 1403 1400 1399 1397 1395 1394 1394 1392 1388 1383 1378 1376 1377 1379 1379 1378 1377 1376 1376 1375 1373 1372 1370 1369 1367 1366 1365 1363 1362 1360 1359 1357 1356 1354 1353 1352 1351 1350 1349 1349 1349 1348 1347 1346 1345 1344 1342 1340 1339 1338
1450 1449 1448 1447 1447 1446 1445 1444 1443 1442 1441 1440 1439 1438 1436 1435 1434 1433 1432 1430 1429 1427 1426 1424 1423 1421 1420 1419 1417 1414 1412 1411 1411 1409 1407 1405 1402 1400 1399 1397 1395 1394 1393 1392 1391 1388 1383 1377 1374 1375 1375 1375 1374 1374 1373 1372 1371 1370 1368 1367 1365 1364 1363 1362 1360 1358 1357 1355 1354 1353 1351 1350 1349 1349 1348 1348 1347 1346 1345 1344 1344 1342 1341 1339 1338 1337
1449 1449 1448 1447 1446 1445 1444 1443 1442 1441 1440 1439 1438 1437 1436 1435 1434 1433 1431 1430 1429 1427 1425 1424 1422 1420 1419 1418 1416 1414 1413 1412 1410 1409 1407 1404 1402 1400 1398 1397 1395 1393 1392 1391 1390 1389 1386 1381 1376 1374 1373 1373 1373 1372 1371 1370 1369 1368 1367 1365 1364 1363 1361 1360 1358 1356 1355 1354 1352 1351 1349 1348 1348 1347 1347 1346 1346 1345 1344 1343 1342 1341 1340 1339 1338 1336
1449 1448 1447 1446 1445 1444 1443 1442 1441 1440 1439 1438 1437 1437 1436 1435 1434 1432 1431 1429 1428 1427 1425 1423 1422 1419 1418 1416 1414 1413 1412 1412 1411 1409 1407 1404 1402 1399 1398 1396 1394 1393 1391 1389 1388 1386 1384 1381 1378 1375 1372 1370 1370 1371 1370 1369 1368 1367 1366 1364 1363 1361 1359 1358 1356 1355 1353 1352 1350 1349 1348 1347 1346 1346 1345 1345 1344 1343 1342 1341 1340 1340 1339 1338 1337 1336
1448 1447 1447 1446 1445 1444 1443 1442 1441 1440 1439 1438 1437 1436 1435 1434 1433 1432 1431 1429 1428 1426 1425 1423 1422 1420 1418 1416 1413 1411 1410 1410 1409 1408 1406 1404 1402 1399 1397 1395 1394 1392 1390 1388 1386 1384 1382 1379 1378 1376 1373 1370 1368 1368 1369 1368 1367 1365 1364 1363 1362 1360 1358 1357 1355 1354 1352 1350 1349 1347 1346 1346 1345 1345 1344 1343 1342 1341 1340 1340 1339 1338 1337 1337 1336 1335
1448 1447 1446 1445 1444 1443 1442 1441 1440 1439 1439 1438 1437 1436 1435 1434 1432 1431 1430 1429 1427 1426 1424 1423 1422 1420 1418 1416 1414 1411 1410 1409 1408 1407 1406 1404 1401 1399 1397 1395 1394 1392 1390 1388 1386 1384 1382 1379 1377 1375 1374 1370 1368 1366 1366 1366 1365 1364 1363 1361 1360 1359 1357 1356 1354 1353 1351 1349 1348 1346 1346 1345 1345 1344 1343 1342 1341 1340 1339 1338 1337 1336 1336 1335 1335 1334
1447 1446 1445 1444 1443 1443 1442 1441 1440 1439 1438 1437 1436 1435 1434 1433 1431 1430 1429 1428 1427 1425 1424 1423 1422 1420 1419 1416 1414 1412 1410 1409 1407 1406 1405 1403 1401 1399 1397 1394 1393 1392 1390 1388 1386 1384 1381 1378 1375 1374 1373 1371 1369 1366 1364 1364 1363 1362 1361 1359 1358 1357 1356 1355 1353 1352 1350 1348 1347 1346 1345 1345 1344 1343 1342 1340 1339 1339 1338 1337 1336 1335 1334 1334 1334 1333
1446 1445 1444 1444 1443 1442 1441 1440 1439 1439 1438 1436 1435 1434 1433 1432 1430 1429 1428 1427 1426 1425 1424 1423 1421 1420 1419 1417 1414 1413 1410 1409 1407 1406 1404 1402 1400 1399 1396 1394 1393 1392 1390 1389 1386 1384 1382 1379 1375 1373 1371 1369 1368 1366 1364 1363 1361 1360 1359 1358 1357 1356 1355 1354 1352 1350 1349 1348 1347 1346 1345 1344 1343 1342 1340 1339 1338 1337 1336 1335 1335 1334 1333 1333 1332 1332
1446 1445 1444 1443 1442 1441 1441 1440 1439 1438 1437 1435 1434 1433 1432 1430 1429 1428 1427 1426 1425 1424 1423 1422 1421 1419 1418 1416 1414 1412 1410 1409 1407 1405 1404 1402 1400 1398 1396 1394 1392 1391 1390 1389 1387 1384 1382 1379 1377 1374 1371 1368 1366 1364 1364 1363 1361 1359 1358 1356 1355 1354 1354 1352 1351 1349 1348 1347 1346 1345 1344 1343 1342 1340 1339 1338 1337 1336 1335 1334 1334 1333 1332 1331 1331 1330
1445 1444 1444 1443 1442 1441 1440 1439 1438 1437 1435 1434 1433 1432 1430 1429 1429 1428 1427 1426 1425 1424 1423 1422 1420 1419 1417 1415 1413 1411 1409 1408 1406 1405 1403 1401 1399 1398 1396 1394 1392 1390 1389 1388 1386 1384 1382 1379 1376 1374 1371 1369 1366 1364 1362 1362 1361 1359 1357 1355 1354 1352 1352 1351 1350 1349 1348 1347 1346 1345 1343 1342 1341 1340 1339 1338 1337 1336 1334 1334 1333 1332 1331 1331 1330 1329
1445 1444 1443 1442 1441 1440 1439 1438 1437 1436 1434 1433 1432 1430 1429 1428 1428 1427 1426 1426 1425 1424 1423 1421 1420 1419 1417 1415 1413 1411 1409 1407 1406 1404 1403 1401 1399 1397 1395 1393 1391 1389 1388 1386 1385 1383 1381 1378 1375 1373 1370 1368 1366 1364 1362 1361 1360 1359 1358 1356 1354 1352 1351 1350 1349 1349 1348 1346 1345 1344 1343 1341 1340 1339 1338 1337 1336 1335 1334 1333 1332 1331 1331 1330 1330 1329
1445 1444 1443 1442 1441 1440 1439 1438 1436 1435 1434 1432 1431 1430 1429 1428 1427 1425 1425 1424 1423 1422 1421 1420 1419 1417 1416 1415 1413 1411 1409 1407 1405 1404 1402 1400 1399 1397 1395 1393 1391 1389 1386 1385 1383 1382 1379 1377 1374 1372 1369 1368 1366 1364 1362 1360 1359 1359 1357 1355 1353 1351 1349 1349 1349 1348 1347 1346 1344 1344 1342 1341 1339 1338 1337 1336 1335 1334 1334 1333 1332 1331 1331 1330 1330 1329
1444 1444 1443 1442 1440 1439 1438 1437 1436 1434 1433 1432 1431 1430 1429 1427 1426 1425 1424 1423 1421 1420 1419 1418 1417 1416 1414 1414 1412 1411 1409 1407 1405 1404 1402 1400 1398 1396 1394 1392 1390 1388 1385 1383 1381 1379 1378 1376 1374 1371 1369 1367 1365 1363 1361 1359 1358 1357 1356 1355 1353 1351 1349 1348 1347 1347 1346 1345 1344 1343 1342 1340 1339 1338 1336 1335 1334 1334 1333 1332 1332 1331 1331 1330 1329 1329
1444 1443 1442 1441 1440 1439 1438 1436 1435 1434 1433 1432 1431 1429 1428 1427 1426 1424 1423 1422 1421 1419 1418 1417 1415 1414 1414 1412 1411 1410 1409 1407 1405 1404 1402 1399 1397 1395 1393 1391 1389 1387 1384 1382 1380 1378 1375 1374 1372 1370 1369 1367 1365 1363 1361 1359 1357 1356 1355 1354 1353 1352 1350 1349 1347 1346 1345 1344 1343 1342 1341 1339 1338 1337 1335 1334 1334 1333 1332 1332 1331 1330 1330 1329 1329 1328
1444 1443 1442 1441 1439 1439 1437 1436 1435 1434 1433 1432 1430 1429 1428 1427 1425 1424 1423 1421 1420 1419 1417 1416 1414 1413 1412 1410 1409 1408 1407 1405 1404 1402 1401 1399 1397 1395 1392 1390 1388 1385 1383 1381 1379 1377 1374 1372 1370 1369 1367 1366 1364 1362 1360 1359 1357 1355 1354 1353 1352 1351 1350 1349 1347 1346 1344 1343 1342 1341 1340 1339 1337 1336 1334 1333 1333 1332 1331 1331 1330 1330 1329 1329 1328 1328
1444 1443 1442 1440 1439 1438 1437 1436 1435 1434 1433 1431 1430 1429 1427 1426 1425 1424 1422 1421 1419 1418 1417 1415 1414 1411 1409 1408 1406 1405 1403 1402 1400 1399 1398 1397 1395 1393 1391 1389 1386 1384 1382 1379 1378 1376 1374 1372 1369 1368 1366 1364 1363 1361 1360 1359 1357 1354 1353 1352 1351 1350 1349 1348 1347 1346 1344 1343 1341 1340 1339 1338 1336 1335 1334 1332 1332 1331 1331 1330 1330 1329 1329 1328 1328 1327
1444 1443 1441 1440 1439 1438 1437 1436 1434 1433 1432 1431 1429 1428 1427 1425 1424 1423 1422 1421 1419 1418 1417 1415 1413 1411 1409 1407 1404 1402 1400 1398 1397 1396 1395 1394 1393 1391 1389 1387 1385 1383 1380 1378 1376 1374 1373 1371 1369 1367 1365 1363 1361 1360 1359 1358 1357 1355 1353 1352 1351 1349 1348 1347 1346 1345 1344 1342 1341 1339 1338 1337 1335 1334 1333 1332 1331 1330 1330 1329 1329 1329 1328 1327 1327 1326
1444 1442 1441 1440 1439 1438 1436 1435 1434 1433 1432 1430 1429 1428 1426 1425 1424 1423 1422 1420 1419 1418 1416 1414 1413 1411 1409 1406 1404 1402 1399 1398 1396 1394 1392 1391 1390 1389 1387 1386 1384 1382 1380 1377 1375 1373 1372 1370 1369 1367 1365 1364 1361 1359 1358 1357 1356 1355 1354 1352 1350 1349 1347 1345 1344 1343 1342 1341 1340 1339 1338 1336 1335 1334 1332 1331 1329 1329 1329 1328 1328 1328 1327 1326 1326 1325
1443 1442 1441 1439 1438 1437 1436 1434 1433 1432 1431 1430 1429 1428 1427 1425 1424 1423 1421 1420 1419 1417 1415 1413 1411 1409 1408 1406 1404 1401 1399 1398 1395 1394 1392 1390 1388 1387 1385 1384 1382 1381 1379 1377 1374 1372 1371 1369 1368 1367 1365 1364 1362 1359 1357 1356 1356 1355 1354 1352 1350 1348 1346 1344 1343 1342 1341 1340 1339 1338 1337 1336 1335 1334 1332 1330 1329 1328 1327 1327 1327 1326 1326 1325 1325 1324
1443 1442 1440 1439 1438 1436 1435 1434 1433 1432 1431 1429 1429 1428 1427 1426 1424 1423 1422 1420 1419 1417 1414 1412 1410 1408 1406 1405 1403 1401 1399 1397 1395 1393 1391 1389 1387 1385 1384 1382 1380 1379 1377 1375 1373 1371 1369 1368 1367 1366 1365 1364 1362 1360 1359 1357 1355 1354 1352 1351 1349 1347 1345 1344 1342 1341 1340 1339 1337 1336 1335 1334 1334 1333 1332 1330 1329 1327 1326 1326 1325 1325 1325 1324 1324 1323
1443 1441 1440 1439 1437 1436 1435 1434 1433 1432 1431 1430 1429 1428 1427 1426 1424 1423 1422 1420 1418 1416 1414 1412 1410 1408 1406 1404 1403 1401 1399 1397 1395 1393 1391 1389 1387 1385 1383 1381 1379 1377 1375 1373 1371 1369 1367 1365 1364 1364 1364 1364 1363 1361 1359 1357 1354 1352 1350 1349 1348 1347 1345 1343 1341 1339 1339 1337 1336 1335 1334 1333 1333 1332 1331 1330 1329 1327 1325 1324 1324 1324 1324 1324 1323 1322